FW6401 Weather Reports


Display with metric or nautical units.
time (UTC)temp
F
wind
direction
speed
MPH
gust
MPH
rain 1hr
in
rain 24hr
in
rain mn
in
humidity
%
barometer
mb
20260507154542 47 284 7.0 15.0 0.00 0.82 0.01 71 1007.7
20260507153046 45 312 6.0 13.0 0.00 0.82 0.01 78 1007.9
20260507151539 44 256 4.0 11.0 0.00 0.82 0.01 85 1008.0
20260507150037 44 254 6.0 11.0 0.00 0.82 0.01 87 1007.9
20260507144536 43 264 7.0 13.0 0.00 0.82 0.01 86 1008.1
20260507143036 44 268 7.0 11.0 0.00 0.82 0.01 82 1007.8
20260507141535 45 272 4.0 10.0 0.00 0.82 0.01 82 1007.8
20260507140043 45 275 3.0 8.0 0.00 0.82 0.01 83 1007.7
20260507134533 45 288 4.0 7.0 0.00 0.84 0.01 83 1007.7
20260507133032 44 320 3.0 6.0 0.00 0.84 0.01 85 1007.8
20260507131532 44 319 4.0 6.0 0.00 0.84 0.01 88 1008.0
20260507130030 44 336 2.0 5.0 0.00 0.84 0.01 88 1007.9
20260507124529 44 336 2.0 4.0 0.00 0.84 0.01 88 1007.9
20260507123033 44 355 1.0 5.0 0.00 0.84 0.01 88 1007.9
20260507121536 43 342 3.0 5.0 0.00 0.84 0.01 89 1008.0
20260507120022 42 140 0.0 0.0 0.00 0.84 0.01 95 1007.9
20260507114521 42 138 0.0 0.0 0.00 0.84 0.01 97 1007.9
20260507113031 41 138 0.0 0.0 0.00 0.84 0.01 98 1007.9
20260507111523 40 138 0.0 0.0 0.00 0.84 0.01 98 1008.1
20260507110023 40 138 0.0 0.0 0.00 0.84 0.01 98 1008.1
20260507104519 39 138 0.0 0.0 0.01 0.84 0.01 98 1008.2
20260507103018 38 138 0.0 3.0 0.01 0.84 0.01 98 1007.9
20260507101526 38 138 1.0 2.0 0.01 0.84 0.01 98 1008.0
20260507100021 37 138 1.0 3.0 0.01 0.84 0.01 97 1007.9
20260507094521 38 138 0.0 3.0 0.00 0.83 0.00 98 1007.6
20260507093032 38 127 2.0 3.0 0.00 0.83 0.00 98 1007.7
20260507091513 38 127 1.0 2.0 0.00 0.83 0.00 98 1007.5
20260507090016 38 127 0.0 3.0 0.00 0.83 0.00 98 1007.8
20260507084509 38 319 0.0 2.0 0.00 0.83 0.00 98 1007.8
20260507083013 38 319 0.0 0.0 0.00 0.83 0.00 97 1007.5
20260507081506 38 319 0.0 0.0 0.00 0.83 0.00 97 1007.2
20260507080006 39 319 0.0 0.0 0.00 0.83 0.00 98 1007.3
20260507074505 39 318 0.0 0.0 0.00 0.83 0.00 97 1007.2
20260507073111 39 318 0.0 0.0 0.00 0.83 0.00 98 1007.4
20260507071611 39 318 0.0 0.0 0.00 0.83 0.00 97 1007.6
20260507070057 40 318 0.0 0.0 0.00 0.83 0.00 97 1007.6
20260507064558 40 319 0.0 2.0 0.00 0.86 0.00 97 1007.5
20260507063058 41 318 0.0 3.0 0.00 0.86 0.00 97 1007.5
20260507061553 41 301 2.0 4.0 0.00 0.86 0.00 97 1007.6
20260507060051 41 344 1.0 7.0 0.00 0.86 0.00 97 1007.2
20260507054558 41 317 2.0 8.0 0.00 0.90 0.00 97 1007.5
20260507053049 42 290 3.0 7.0 0.00 0.90 0.00 98 1007.4
20260507051547 42 308 4.0 9.0 0.00 0.90 0.00 98 1007.4
20260507050044 42 300 4.0 9.0 0.00 0.90 0.00 98 1007.3
20260507044543 42 333 4.0 9.0 0.00 0.90 0.00 97 1007.3
20260507043041 42 277 2.0 4.0 0.00 0.90 0.00 98 1007.3
20260507041539 42 279 0.0 0.0 0.00 0.90 0.00 97 1007.3
20260507040040 42 279 0.0 0.0 0.01 0.90 0.00 97 1007.5
20260507034535 42 279 0.0 1.0 0.02 0.90 0.90 97 1007.5
20260507033038 42 279 0.0 4.0 0.04 0.90 0.90 97 1007.9
20260507031534 42 264 1.0 7.0 0.05 0.90 0.90 98 1008.1
20260507030034 42 273 2.0 11.0 0.05 0.89 0.89 98 1008.0
20260507024534 43 314 2.0 8.0 0.04 0.88 0.88 98 1008.1
20260507023031 43 304 1.0 4.0 0.03 0.86 0.86 98 1008.2
20260507021529 43 317 2.0 6.0 0.03 0.85 0.85 98 1008.0
20260507020030 43 311 3.0 8.0 0.03 0.84 0.84 98 1007.8
20260507014527 43 265 5.0 9.0 0.04 0.84 0.84 98 1007.7
20260507013034 43 313 5.0 8.0 0.04 0.83 0.83 97 1007.6
20260507011535 43 291 3.0 6.0 0.04 0.82 0.82 98 1007.3
20260507010025 43 279 3.0 7.0 0.03 0.81 0.81 98 1007.1
20260507004522 43 321 4.0 6.0 0.02 0.80 0.80 98 1006.7
20260507003021 44 290 2.0 4.0 0.02 0.79 0.79 98 1006.8
20260507001521 44 300 2.0 7.0 0.01 0.78 0.78 98 1006.5
20260507000020 44 298 3.0 8.0 0.01 0.78 0.78 98 1006.6
20260506234519 45 338 5.0 9.0 0.02 0.78 0.78 98 1006.3
20260506233017 45 331 4.0 6.0 0.01 0.77 0.77 98 1006.1
20260506231516 45 174 0.0 3.0 0.05 0.77 0.77 98 1006.0
20260506230016 45 174 1.0 3.0 0.09 0.76 0.76 98 1006.1
20260506224524 45 260 2.0 4.0 0.11 0.77 0.76 98 1006.1
20260506223015 45 267 4.0 12.0 0.12 0.76 0.75 97 1005.9
20260506221513 45 319 4.0 11.0 0.09 0.72 0.71 96 1006.0
20260506220010 46 315 6.0 15.0 0.06 0.68 0.67 96 1005.6
20260506214505 47 305 6.0 12.0 0.05 0.73 0.65 96 1005.1
20260506213001 49 5 5.0 10.0 0.04 0.71 0.63 96 1004.9
20260506211558 50 317 5.0 9.0 0.03 0.70 0.62 96 1004.7
20260506210119 51 317 3.0 8.0 0.02 0.69 0.61 95 1004.7
20260506204556 53 323 4.0 6.0 0.01 0.68 0.60 95 1004.6
20260506203141 56 311 3.0 5.0 0.00 0.67 0.59 94 1004.5
20260506201555 57 322 1.0 8.0 0.02 0.67 0.59 93 1004.3
20260506200055 58 293 3.0 10.0 0.05 0.67 0.59 89 1004.4
20260506194552 57 219 6.0 15.0 0.18 0.67 0.59 88 1004.7
20260506193051 57 209 5.0 13.0 0.26 0.67 0.59 90 1004.9
20260506191553 56 232 2.0 10.0 0.28 0.65 0.56 95 1005.1
20260506190054 56 360 0.0 4.0 0.26 0.62 0.54 98 1005.3
20260506184555 56 355 1.0 2.0 0.16 0.48 0.40 97 1005.4
20260506183047 56 355 2.0 8.0 0.11 0.40 0.32 97 1005.1
20260506181545 57 156 1.0 2.0 0.10 0.37 0.28 96 1005.4
20260506180046 57 153 3.0 5.0 0.10 0.36 0.28 96 1005.6
20260506174546 57 164 1.0 5.0 0.08 0.32 0.24 96 1005.8
20260506173052 57 171 2.0 5.0 0.06 0.28 0.21 96 1005.8
20260506171543 57 183 2.0 4.0 0.05 0.27 0.19 97 1005.6
20260506170042 56 136 1.0 4.0 0.05 0.26 0.18 98 1005.7
20260506164547 56 131 0.0 2.0 0.04 0.24 0.16 99 1005.8
20260506163055 56 131 0.0 3.0 0.05 0.23 0.15 99 1005.9
20260506161538 55 121 2.0 6.0 0.04 0.22 0.14 99 1006.4
20260506160036 54 346 0.0 1.0 0.04 0.21 0.13 99 1006.9